Time,TemperatureF,DewpointF,PressureIn,WindDirection,WindDirectionDegrees,WindSpeedMPH,WindSpeedGustMPH,Humidity,HourlyPrecipIn,Conditions,Clouds,dailyrainin,SoftwareType,DateUTC
2013-01-19 00:02:00,49.6,32.7,30.15,NNE,14,0.0,1.0,52,0.00,,,0.00,meteohub,2013-01-19 08:02:00,
2013-01-19 00:08:00,49.5,32.5,30.15,NNE,14,0.0,1.0,52,0.00,,,0.00,meteohub,2013-01-19 08:08:00,
2013-01-19 00:13:00,49.3,32.9,30.15,NNE,14,0.0,1.0,53,0.00,,,0.00,meteohub,2013-01-19 08:13:00,
2013-01-19 00:18:00,48.9,32.5,30.15,NNE,14,0.0,1.0,53,0.00,,,0.00,meteohub,2013-01-19 08:18:00,
2013-01-19 00:23:00,48.7,31.8,30.15,NNE,14,0.0,1.0,52,0.00,,,0.00,meteohub,2013-01-19 08:23:00,
2013-01-19 00:28:00,48.9,31.6,30.15,NNE,14,0.0,0.0,51,0.00,,,0.00,meteohub,2013-01-19 08:28:00,
2013-01-19 00:33:00,48.9,31.6,30.15,NNE,14,0.0,0.0,51,0.00,,,0.00,meteohub,2013-01-19 08:33:00,
2013-01-19 00:38:00,48.9,31.1,30.15,NNE,14,0.0,0.0,50,0.00,,,0.00,meteohub,2013-01-19 08:38:00,
2013-01-19 00:44:00,48.7,31.5,30.15,NNE,14,0.0,0.0,51,0.00,,,0.00,meteohub,2013-01-19 08:44:00,
2013-01-19 00:49:00,48.9,31.1,30.15,NNE,14,0.0,0.0,50,0.00,,,0.00,meteohub,2013-01-19 08:49:00,
2013-01-19 00:54:00,48.9,30.6,30.15,NNE,14,0.0,0.0,49,0.00,,,0.00,meteohub,2013-01-19 08:54:00,
2013-01-19 00:59:00,49.3,31.5,30.15,NNE,14,0.0,0.0,50,0.00,,,0.00,meteohub,2013-01-19 08:59:00,
2013-01-19 01:04:00,48.9,32.0,30.15,NNE,14,0.0,0.0,52,0.00,,,0.00,meteohub,2013-01-19 09:04:00,
2013-01-19 01:09:00,48.4,32.9,30.15,NNE,14,0.0,0.0,55,0.00,,,0.00,meteohub,2013-01-19 09:09:00,
2013-01-19 01:14:00,47.7,32.4,30.15,NNE,14,0.0,2.0,55,0.00,,,0.00,meteohub,2013-01-19 09:14:00,
2013-01-19 01:20:00,47.5,32.2,30.15,NNE,14,0.0,2.0,55,0.00,,,0.00,meteohub,2013-01-19 09:20:00,
2013-01-19 01:25:00,47.3,32.4,30.15,NNE,14,0.0,1.0,56,0.00,,,0.00,meteohub,2013-01-19 09:25:00,
2013-01-19 01:30:00,47.3,32.0,30.15,NNE,14,0.0,0.0,55,0.00,,,0.00,meteohub,2013-01-19 09:30:00,
2013-01-19 01:35:00,47.5,30.7,30.15,NNE,14,0.0,0.0,52,0.00,,,0.00,meteohub,2013-01-19 09:35:00,
2013-01-19 01:40:00,47.7,31.3,30.15,NNE,14,0.0,0.0,53,0.00,,,0.00,meteohub,2013-01-19 09:40:00,
2013-01-19 01:45:00,47.8,31.5,30.15,NNE,14,0.0,1.0,53,0.00,,,0.00,meteohub,2013-01-19 09:45:00,
2013-01-19 01:50:00,47.8,31.5,30.15,NNE,14,0.0,1.0,53,0.00,,,0.00,meteohub,2013-01-19 09:50:00,
2013-01-19 01:55:00,47.7,30.9,30.15,NNE,14,0.0,1.0,52,0.00,,,0.00,meteohub,2013-01-19 09:55:00,
2013-01-19 02:00:00,47.7,30.4,30.15,NNE,14,0.0,1.0,51,0.00,,,0.00,meteohub,2013-01-19 10:00:00,
2013-01-19 02:05:00,47.7,30.4,30.15,NNE,14,0.0,0.0,51,0.00,,,0.00,meteohub,2013-01-19 10:05:00,
2013-01-19 02:11:00,47.7,30.9,30.16,NNE,14,0.0,0.0,52,0.00,,,0.00,meteohub,2013-01-19 10:11:00,
2013-01-19 02:16:00,47.5,30.7,30.16,NNE,14,0.0,1.0,52,0.00,,,0.00,meteohub,2013-01-19 10:16:00,
2013-01-19 02:21:00,47.1,29.8,30.16,NNE,14,0.0,1.0,51,0.00,,,0.00,meteohub,2013-01-19 10:21:00,
2013-01-19 02:26:00,47.1,30.4,30.15,NNE,14,0.0,1.0,52,0.00,,,0.00,meteohub,2013-01-19 10:26:00,
2013-01-19 02:31:00,47.1,30.4,30.15,NNE,14,0.0,3.0,52,0.00,,,0.00,meteohub,2013-01-19 10:31:00,
2013-01-19 02:36:00,46.9,29.8,30.15,NNE,14,0.0,3.0,51,0.00,,,0.00,meteohub,2013-01-19 10:36:00,
2013-01-19 02:42:00,46.9,30.7,30.15,NNE,14,0.0,1.0,53,0.00,,,0.00,meteohub,2013-01-19 10:42:00,
2013-01-19 02:47:00,46.9,30.7,30.15,NNE,14,0.0,1.0,53,0.00,,,0.00,meteohub,2013-01-19 10:47:00,
2013-01-19 02:52:00,47.1,30.4,30.15,NNE,14,0.0,0.0,52,0.00,,,0.00,meteohub,2013-01-19 10:52:00,
2013-01-19 02:57:00,47.3,31.1,30.15,NNE,14,0.0,0.0,53,0.00,,,0.00,meteohub,2013-01-19 10:57:00,
2013-01-19 03:02:00,47.5,30.7,30.15,NNE,14,0.0,0.0,52,0.00,,,0.00,meteohub,2013-01-19 11:02:00,
2013-01-19 03:07:00,47.1,29.8,30.15,NNE,14,0.0,1.0,51,0.00,,,0.00,meteohub,2013-01-19 11:07:00,
2013-01-19 03:12:00,46.8,30.9,30.15,NNE,14,0.0,3.0,54,0.00,,,0.00,meteohub,2013-01-19 11:12:00,
2013-01-19 04:37:00,44.8,29.1,30.16,NNE,14,0.0,0.0,54,0.00,,,0.00,meteohub,2013-01-19 12:37:00,
2013-01-19 04:48:00,44.4,30.2,30.16,NNE,14,0.0,0.0,57,0.00,,,0.00,meteohub,2013-01-19 12:48:00,
2013-01-19 04:49:00,44.4,30.2,30.16,NNE,14,0.0,0.0,57,0.00,,,0.00,meteohub,2013-01-19 12:49:00,
2013-01-19 04:54:00,44.6,28.9,30.16,NNE,14,0.0,0.0,54,0.00,,,0.00,meteohub,2013-01-19 12:54:00,
2013-01-19 04:59:00,44.8,29.1,30.16,NNE,14,0.0,1.0,54,0.00,,,0.00,meteohub,2013-01-19 12:59:00,
2013-01-19 05:04:00,44.8,28.8,30.17,NNE,14,0.0,2.0,53,0.00,,,0.00,meteohub,2013-01-19 13:04:00,
2013-01-19 05:09:00,44.8,28.8,30.17,NNE,14,0.0,2.0,53,0.00,,,0.00,meteohub,2013-01-19 13:09:00,
2013-01-19 05:14:00,44.8,29.1,30.17,NNE,14,0.0,2.0,54,0.00,,,0.00,meteohub,2013-01-19 13:14:00,
2013-01-19 05:19:00,44.6,29.5,30.17,NNE,14,0.0,0.0,55,0.00,,,0.00,meteohub,2013-01-19 13:19:00,
2013-01-19 05:25:00,44.4,28.8,30.17,NNE,14,0.0,0.0,54,0.00,,,0.00,meteohub,2013-01-19 13:25:00,
2013-01-19 05:30:00,44.2,28.6,30.17,NNE,14,0.0,0.0,54,0.00,,,0.00,meteohub,2013-01-19 13:30:00,
2013-01-19 05:35:00,44.2,28.6,30.17,NNE,14,0.0,0.0,54,0.00,,,0.00,meteohub,2013-01-19 13:35:00,
2013-01-19 05:40:00,44.2,29.1,30.17,NNE,14,0.0,0.0,55,0.00,,,0.00,meteohub,2013-01-19 13:40:00,
2013-01-19 05:45:00,44.2,29.5,30.17,NNE,14,0.0,0.0,56,0.00,,,0.00,meteohub,2013-01-19 13:45:00,
2013-01-19 05:50:00,44.1,29.3,30.17,NNE,14,0.0,0.0,56,0.00,,,0.00,meteohub,2013-01-19 13:50:00,
2013-01-19 05:55:00,43.9,28.8,30.17,NNE,14,0.0,1.0,55,0.00,,,0.00,meteohub,2013-01-19 13:55:00,
2013-01-19 06:00:00,44.1,27.5,30.17,NNE,14,0.0,1.0,52,0.00,,,0.00,meteohub,2013-01-19 14:00:00,
2013-01-19 06:05:00,44.2,27.3,30.17,NNE,14,0.0,0.0,51,0.00,,,0.00,meteohub,2013-01-19 14:05:00,
2013-01-19 06:10:00,44.4,28.8,30.17,NNE,14,0.0,0.0,54,0.00,,,0.00,meteohub,2013-01-19 14:10:00,
2013-01-19 06:15:00,44.4,28.4,30.17,NNE,14,0.0,0.0,53,0.00,,,0.00,meteohub,2013-01-19 14:15:00,
2013-01-19 06:21:00,44.4,27.9,30.18,NNE,14,0.0,0.0,52,0.00,,,0.00,meteohub,2013-01-19 14:21:00,
2013-01-19 06:26:00,44.4,28.4,30.18,NNE,14,0.0,0.0,53,0.00,,,0.00,meteohub,2013-01-19 14:26:00,
2013-01-19 06:31:00,44.8,28.2,30.18,NNE,14,0.0,0.0,52,0.00,,,0.00,meteohub,2013-01-19 14:31:00,
2013-01-19 06:36:00,44.8,28.8,30.18,NNE,14,0.0,0.0,53,0.00,,,0.00,meteohub,2013-01-19 14:36:00,
2013-01-19 06:41:00,45.0,27.9,30.18,NNE,14,0.0,0.0,51,0.00,,,0.00,meteohub,2013-01-19 14:41:00,
2013-01-19 06:46:00,45.0,28.4,30.18,NNE,14,0.0,0.0,52,0.00,,,0.00,meteohub,2013-01-19 14:46:00,
2013-01-19 06:51:00,45.0,28.9,30.18,NNE,14,0.0,0.0,53,0.00,,,0.00,meteohub,2013-01-19 14:51:00,
2013-01-19 06:56:00,44.8,29.1,30.18,NNE,14,0.0,0.0,54,0.00,,,0.00,meteohub,2013-01-19 14:56:00,
2013-01-19 07:02:00,44.8,29.1,30.19,NNE,14,0.0,0.0,54,0.00,,,0.00,meteohub,2013-01-19 15:02:00,
2013-01-19 07:07:00,44.6,29.5,30.19,NNE,14,0.0,0.0,55,0.00,,,0.00,meteohub,2013-01-19 15:07:00,
2013-01-19 07:12:00,44.6,29.5,30.19,NNE,14,0.0,0.0,55,0.00,,,0.00,meteohub,2013-01-19 15:12:00,
2013-01-19 07:17:00,44.4,29.3,30.19,NNE,14,0.0,0.0,55,0.00,,,0.00,meteohub,2013-01-19 15:17:00,
2013-01-19 07:22:00,44.4,29.3,30.19,NNE,14,0.0,0.0,55,0.00,,,0.00,meteohub,2013-01-19 15:22:00,
2013-01-19 07:27:00,44.2,28.6,30.19,NNE,14,0.0,0.0,54,0.00,,,0.00,meteohub,2013-01-19 15:27:00,
2013-01-19 07:32:00,44.2,29.5,30.19,NNE,14,0.0,0.0,56,0.00,,,0.00,meteohub,2013-01-19 15:32:00,
2013-01-19 07:37:00,44.4,29.7,30.20,NNE,14,0.0,0.0,56,0.00,,,0.00,meteohub,2013-01-19 15:37:00,
2013-01-19 07:42:00,44.2,29.5,30.19,NNE,14,0.0,1.0,56,0.00,,,0.00,meteohub,2013-01-19 15:42:00,
2013-01-19 07:47:00,44.1,28.9,30.20,NNE,14,0.0,1.0,55,0.00,,,0.00,meteohub,2013-01-19 15:47:00,
2013-01-19 07:52:00,44.1,28.9,30.20,NNE,14,0.0,1.0,55,0.00,,,0.00,meteohub,2013-01-19 15:52:00,
2013-01-19 07:57:00,44.2,30.4,30.20,NNE,14,0.0,0.0,58,0.00,,,0.00,meteohub,2013-01-19 15:57:00,
2013-01-19 08:02:00,44.6,29.8,30.20,NNE,14,0.0,0.0,56,0.00,,,0.00,meteohub,2013-01-19 16:02:00,
2013-01-19 08:07:00,45.0,30.2,30.21,NNE,14,0.0,0.0,56,0.00,,,0.00,meteohub,2013-01-19 16:07:00,
2013-01-19 08:12:00,45.3,30.0,30.21,NNE,14,0.0,0.0,55,0.00,,,0.00,meteohub,2013-01-19 16:12:00,
2013-01-19 08:17:00,45.9,30.6,30.21,NNE,14,0.0,1.0,55,0.00,,,0.00,meteohub,2013-01-19 16:17:00,
2013-01-19 08:22:00,46.2,30.9,30.21,NNE,14,0.0,1.0,55,0.00,,,0.00,meteohub,2013-01-19 16:22:00,
2013-01-19 08:27:00,46.6,30.7,30.21,NNE,14,0.0,0.0,54,0.00,,,0.00,meteohub,2013-01-19 16:27:00,
2013-01-19 08:32:00,46.9,30.2,30.22,NNE,14,0.0,0.0,52,0.00,,,0.00,meteohub,2013-01-19 16:32:00,
2013-01-19 08:37:00,47.3,31.5,30.22,NNE,14,0.0,0.0,54,0.00,,,0.00,meteohub,2013-01-19 16:37:00,
2013-01-19 08:42:00,47.8,31.1,30.22,NNE,14,0.0,0.0,52,0.00,,,0.00,meteohub,2013-01-19 16:42:00,
2013-01-19 08:47:00,48.2,30.9,30.22,NNE,14,0.0,0.0,51,0.00,,,0.00,meteohub,2013-01-19 16:47:00,
2013-01-19 08:52:00,48.7,32.9,30.22,NNE,14,0.0,0.0,54,0.00,,,0.00,meteohub,2013-01-19 16:52:00,
2013-01-19 08:57:00,49.6,33.3,30.22,NNE,14,0.0,0.0,53,0.00,,,0.00,meteohub,2013-01-19 16:57:00,
2013-01-19 09:02:00,50.7,34.2,30.22,NNE,14,0.0,1.0,53,0.00,,,0.00,meteohub,2013-01-19 17:02:00,
2013-01-19 09:07:00,51.6,35.1,30.23,NNE,14,0.0,1.0,53,0.00,,,0.00,meteohub,2013-01-19 17:07:00,
2013-01-19 09:12:00,52.5,36.0,30.23,NNE,14,0.0,1.0,53,0.00,,,0.00,meteohub,2013-01-19 17:12:00,
2013-01-19 09:18:00,53.4,35.2,30.23,NNE,14,0.0,0.0,50,0.00,,,0.00,meteohub,2013-01-19 17:18:00,
2013-01-19 09:23:00,54.3,34.5,30.23,NNE,14,0.0,0.0,47,0.00,,,0.00,meteohub,2013-01-19 17:23:00,
2013-01-19 09:29:00,55.9,32.5,30.23,NNE,14,0.0,0.0,41,0.00,,,0.00,meteohub,2013-01-19 17:29:00,
2013-01-19 09:34:00,57.7,30.2,30.24,NNE,14,0.0,0.0,35,0.00,,,0.00,meteohub,2013-01-19 17:34:00,
2013-01-19 09:39:00,59.2,31.5,30.23,NNE,14,0.0,0.0,35,0.00,,,0.00,meteohub,2013-01-19 17:39:00,
2013-01-19 09:44:00,60.4,33.4,30.23,NNE,14,0.0,0.0,36,0.00,,,0.00,meteohub,2013-01-19 17:44:00,
2013-01-19 09:50:00,61.5,32.9,30.23,NNE,14,0.0,0.0,34,0.00,,,0.00,meteohub,2013-01-19 17:50:00,
2013-01-19 09:55:00,63.1,32.0,30.23,NNE,14,0.0,0.0,31,0.00,,,0.00,meteohub,2013-01-19 17:55:00,
2013-01-19 10:00:00,64.6,32.4,30.23,NNE,14,0.0,0.0,30,0.00,,,0.00,meteohub,2013-01-19 18:00:00,
2013-01-19 10:05:00,66.0,31.1,30.23,NNE,14,0.0,0.0,27,0.00,,,0.00,meteohub,2013-01-19 18:05:00,
2013-01-19 10:12:00,67.3,30.2,30.23,North,5,0.0,1.0,25,0.00,,,0.00,meteohub,2013-01-19 18:12:00,
2013-01-19 10:17:00,67.8,29.7,30.23,WSW,240,0.0,2.0,24,0.00,,,0.00,meteohub,2013-01-19 18:17:00,
2013-01-19 10:22:00,68.5,31.3,30.23,WSW,240,0.0,2.0,25,0.00,,,0.00,meteohub,2013-01-19 18:22:00,
2013-01-19 10:27:00,69.3,26.4,30.22,WSW,240,0.0,2.0,20,0.00,,,0.00,meteohub,2013-01-19 18:27:00,
2013-01-19 10:32:00,70.0,29.3,30.22,WSW,240,0.0,1.0,22,0.00,,,0.00,meteohub,2013-01-19 18:32:00,
2013-01-19 10:38:00,70.9,28.9,30.22,WSW,240,0.0,1.0,21,0.00,,,0.00,meteohub,2013-01-19 18:38:00,
2013-01-19 10:43:00,71.8,27.3,30.22,WSW,240,0.0,1.0,19,0.00,,,0.00,meteohub,2013-01-19 18:43:00,
2013-01-19 10:49:00,72.1,23.5,30.21,WSW,240,0.0,1.0,16,0.00,,,0.00,meteohub,2013-01-19 18:49:00,
2013-01-19 10:54:00,72.7,26.8,30.21,WSW,240,0.0,1.0,18,0.00,,,0.00,meteohub,2013-01-19 18:54:00,
2013-01-19 11:02:00,73.4,24.4,30.21,WSW,240,0.0,3.0,16,0.00,,,0.00,meteohub,2013-01-19 19:02:00,
2013-01-19 11:08:00,73.8,26.2,30.20,WSW,240,0.0,3.0,17,0.00,,,0.00,meteohub,2013-01-19 19:08:00,
2013-01-19 11:13:00,74.1,26.6,30.20,SW,215,1.0,3.0,17,0.00,,,0.00,meteohub,2013-01-19 19:13:00,
2013-01-19 11:18:00,74.3,25.2,30.20,South,189,0.0,1.0,16,0.00,,,0.00,meteohub,2013-01-19 19:18:00,
2013-01-19 11:24:00,74.5,26.8,30.19,South,189,0.0,2.0,17,0.00,,,0.00,meteohub,2013-01-19 19:24:00,
2013-01-19 11:29:00,75.0,25.7,30.19,South,184,0.0,2.0,16,0.00,,,0.00,meteohub,2013-01-19 19:29:00,
2013-01-19 11:37:00,75.6,26.2,30.19,WSW,240,0.0,4.0,16,0.00,,,0.00,meteohub,2013-01-19 19:37:00,
2013-01-19 11:42:00,75.6,27.7,30.19,WSW,240,1.0,4.0,17,0.00,,,0.00,meteohub,2013-01-19 19:42:00,
2013-01-19 11:48:00,75.9,28.0,30.18,SW,216,0.0,2.0,17,0.00,,,0.00,meteohub,2013-01-19 19:48:00,
2013-01-19 11:53:00,76.5,27.0,30.18,SW,221,0.0,2.0,16,0.00,,,0.00,meteohub,2013-01-19 19:53:00,
2013-01-19 11:58:00,76.8,27.1,30.18,SSW,194,0.0,2.0,16,0.00,,,0.00,meteohub,2013-01-19 19:58:00,
2013-01-19 12:03:00,77.0,30.2,30.17,SSW,198,0.0,3.0,18,0.00,,,0.00,meteohub,2013-01-19 20:03:00,
2013-01-19 12:09:00,77.4,26.1,30.17,SW,215,0.0,4.0,15,0.00,,,0.00,meteohub,2013-01-19 20:09:00,
2013-01-19 12:14:00,77.5,29.3,30.17,SW,215,0.0,4.0,17,0.00,,,0.00,meteohub,2013-01-19 20:14:00,
2013-01-19 12:20:00,77.7,29.5,30.17,SW,216,0.0,4.0,17,0.00,,,0.00,meteohub,2013-01-19 20:20:00,
2013-01-19 12:25:00,77.9,28.0,30.17,SW,215,3.0,4.0,16,0.00,,,0.00,meteohub,2013-01-19 20:25:00,
2013-01-19 12:30:00,77.7,29.5,30.17,SW,219,2.0,4.0,17,0.00,,,0.00,meteohub,2013-01-19 20:30:00,
2013-01-19 12:35:00,77.9,28.0,30.16,SW,225,1.0,4.0,16,0.00,,,0.00,meteohub,2013-01-19 20:35:00,
2013-01-19 12:41:00,77.9,29.7,30.16,South,187,0.0,5.0,17,0.00,,,0.00,meteohub,2013-01-19 20:41:00,
2013-01-19 12:47:00,78.4,30.0,30.15,SW,215,2.0,5.0,17,0.00,,,0.00,meteohub,2013-01-19 20:47:00,
2013-01-19 12:54:00,78.4,28.6,30.15,SSW,196,1.0,3.0,16,0.00,,,0.00,meteohub,2013-01-19 20:54:00,
2013-01-19 12:59:00,78.4,28.6,30.15,SW,225,0.0,4.0,16,0.00,,,0.00,meteohub,2013-01-19 20:59:00,
2013-01-19 13:04:00,78.4,28.6,30.15,SW,215,3.0,4.0,16,0.00,,,0.00,meteohub,2013-01-19 21:04:00,
2013-01-19 13:09:00,78.8,27.3,30.15,SW,229,0.0,4.0,15,0.00,,,0.00,meteohub,2013-01-19 21:09:00,
2013-01-19 13:14:00,79.2,27.5,30.15,SSE,166,2.0,4.0,15,0.00,,,0.00,meteohub,2013-01-19 21:14:00,
2013-01-19 13:21:00,79.3,27.7,30.15,SSE,166,0.0,4.0,15,0.00,,,0.00,meteohub,2013-01-19 21:21:00,
2013-01-19 13:27:00,79.5,30.9,30.15,NNW,331,0.0,4.0,17,0.00,,,0.00,meteohub,2013-01-19 21:27:00,
2013-01-19 13:32:00,79.3,29.3,30.14,North,10,3.0,4.0,16,0.00,,,0.00,meteohub,2013-01-19 21:32:00,
2013-01-19 13:37:00,78.3,29.8,30.14,North,355,2.0,6.0,17,0.00,,,0.00,meteohub,2013-01-19 21:37:00,
2013-01-19 13:43:00,77.7,29.5,30.14,NNW,338,0.0,6.0,17,0.00,,,0.00,meteohub,2013-01-19 21:43:00,
2013-01-19 13:51:00,77.4,27.7,30.14,NNW,346,6.0,6.0,16,0.00,,,0.00,meteohub,2013-01-19 21:51:00,
2013-01-19 13:57:00,77.0,27.3,30.14,NNW,333,2.0,7.0,16,0.00,,,0.00,meteohub,2013-01-19 21:57:00,
2013-01-19 14:02:00,77.0,30.2,30.14,NNW,348,4.0,7.0,18,0.00,,,0.00,meteohub,2013-01-19 22:02:00,
2013-01-19 14:07:00,77.2,28.9,30.14,NNE,15,6.0,6.0,17,0.00,,,0.00,meteohub,2013-01-19 22:07:00,
2013-01-19 14:17:00,77.0,27.3,30.13,NNW,342,0.0,8.0,16,0.00,,,0.00,meteohub,2013-01-19 22:17:00,
2013-01-19 14:24:00,77.2,27.5,30.13,NNW,338,1.0,8.0,16,0.00,,,0.00,meteohub,2013-01-19 22:24:00,
2013-01-19 14:29:00,77.4,26.1,30.13,NNW,342,4.0,6.0,15,0.00,,,0.00,meteohub,2013-01-19 22:29:00,
2013-01-19 14:35:00,77.4,26.1,30.13,NNE,19,1.0,6.0,15,0.00,,,0.00,meteohub,2013-01-19 22:35:00,
2013-01-19 14:40:00,77.4,27.7,30.13,NNW,328,1.0,6.0,16,0.00,,,0.00,meteohub,2013-01-19 22:40:00,
2013-01-19 14:47:00,77.5,26.2,30.13,NNE,15,4.0,6.0,15,0.00,,,0.00,meteohub,2013-01-19 22:47:00,
2013-01-19 14:52:00,77.4,26.1,30.13,NNE,13,3.0,7.0,15,0.00,,,0.00,meteohub,2013-01-19 22:52:00,
2013-01-19 14:57:00,77.4,27.7,30.13,North,349,0.0,7.0,16,0.00,,,0.00,meteohub,2013-01-19 22:57:00,
2013-01-19 15:03:00,77.4,27.7,30.13,NNW,333,0.0,6.0,16,0.00,,,0.00,meteohub,2013-01-19 23:03:00,
2013-01-19 15:10:00,77.2,27.5,30.13,NNW,330,0.0,6.0,16,0.00,,,0.00,meteohub,2013-01-19 23:10:00,
2013-01-19 15:15:00,77.4,27.7,30.13,NNW,330,1.0,7.0,16,0.00,,,0.00,meteohub,2013-01-19 23:15:00,
2013-01-19 15:20:00,77.7,27.9,30.13,NNW,330,2.0,4.0,16,0.00,,,0.00,meteohub,2013-01-19 23:20:00,
2013-01-19 15:25:00,77.7,27.9,30.13,NNW,330,0.0,2.0,16,0.00,,,0.00,meteohub,2013-01-19 23:25:00,
2013-01-19 15:30:00,77.7,29.5,30.13,NNW,330,0.0,2.0,17,0.00,,,0.00,meteohub,2013-01-19 23:30:00,
2013-01-19 15:35:00,78.1,28.2,30.13,NW,304,0.0,2.0,16,0.00,,,0.00,meteohub,2013-01-19 23:35:00,
2013-01-19 15:40:00,78.6,28.8,30.13,WNW,288,0.0,2.0,16,0.00,,,0.00,meteohub,2013-01-19 23:40:00,
2013-01-19 15:45:00,78.8,28.8,30.13,WNW,288,0.0,2.0,16,0.00,,,0.00,meteohub,2013-01-19 23:45:00,
2013-01-19 15:52:00,78.6,27.1,30.13,NW,315,0.0,2.0,15,0.00,,,0.00,meteohub,2013-01-19 23:52:00,
2013-01-19 15:57:00,77.7,26.4,30.13,NNW,331,2.0,5.0,15,0.00,,,0.00,meteohub,2013-01-19 23:57:00,
2013-01-19 16:02:00,77.4,26.1,30.13,NNW,338,1.0,5.0,15,0.00,,,0.00,meteohub,2013-01-20 00:02:00,
2013-01-19 16:07:00,77.2,24.3,30.13,NNW,338,0.0,4.0,14,0.00,,,0.00,meteohub,2013-01-20 00:07:00,
2013-01-19 16:12:00,76.8,24.1,30.13,NNW,338,0.0,4.0,14,0.00,,,0.00,meteohub,2013-01-20 00:12:00,
2013-01-19 16:17:00,76.6,25.5,30.13,NNW,344,0.0,4.0,15,0.00,,,0.00,meteohub,2013-01-20 00:17:00,
2013-01-19 16:23:00,76.5,25.3,30.13,NNW,344,0.0,2.0,15,0.00,,,0.00,meteohub,2013-01-20 00:23:00,
2013-01-19 16:29:00,76.3,23.5,30.13,NNW,344,0.0,4.0,14,0.00,,,0.00,meteohub,2013-01-20 00:29:00,
2013-01-19 16:34:00,75.9,25.0,30.13,NNW,344,0.0,4.0,15,0.00,,,0.00,meteohub,2013-01-20 00:34:00,
2013-01-19 16:40:00,75.6,24.6,30.13,NNW,344,1.0,4.0,15,0.00,,,0.00,meteohub,2013-01-20 00:40:00,
2013-01-19 16:45:00,75.2,25.9,30.13,NNW,344,0.0,2.0,16,0.00,,,0.00,meteohub,2013-01-20 00:45:00,
2013-01-19 16:50:00,74.8,25.7,30.13,NNW,344,0.0,5.0,16,0.00,,,0.00,meteohub,2013-01-20 00:50:00,
2013-01-19 16:55:00,74.1,26.6,30.13,North,0,0.0,5.0,17,0.00,,,0.00,meteohub,2013-01-20 00:55:00,
2013-01-19 17:00:00,73.8,26.2,30.13,North,351,0.0,5.0,17,0.00,,,0.00,meteohub,2013-01-20 01:00:00,
2013-01-19 17:05:00,73.0,27.0,30.14,North,351,2.0,4.0,18,0.00,,,0.00,meteohub,2013-01-20 01:05:00,
2013-01-19 17:10:00,72.7,26.8,30.14,North,5,0.0,4.0,18,0.00,,,0.00,meteohub,2013-01-20 01:10:00,
2013-01-19 17:16:00,72.3,26.4,30.14,North,5,1.0,4.0,18,0.00,,,0.00,meteohub,2013-01-20 01:16:00,
2013-01-19 17:21:00,71.6,25.9,30.14,North,5,0.0,4.0,18,0.00,,,0.00,meteohub,2013-01-20 01:21:00,
2013-01-19 17:26:00,71.1,26.8,30.14,North,5,2.0,4.0,19,0.00,,,0.00,meteohub,2013-01-20 01:26:00,
2013-01-19 17:32:00,70.5,26.2,30.14,North,0,2.0,4.0,19,0.00,,,0.00,meteohub,2013-01-20 01:32:00,
2013-01-19 17:37:00,70.3,26.1,30.14,NNE,15,3.0,5.0,19,0.00,,,0.00,meteohub,2013-01-20 01:37:00,
2013-01-19 17:42:00,70.2,27.1,30.14,NNE,15,0.0,5.0,20,0.00,,,0.00,meteohub,2013-01-20 01:42:00,
2013-01-19 17:47:00,70.0,25.9,30.14,NNE,15,1.0,5.0,19,0.00,,,0.00,meteohub,2013-01-20 01:47:00,
2013-01-19 17:53:00,69.8,25.7,30.14,NNE,15,1.0,4.0,19,0.00,,,0.00,meteohub,2013-01-20 01:53:00,
2013-01-19 17:58:00,69.6,25.5,30.14,NNE,15,0.0,3.0,19,0.00,,,0.00,meteohub,2013-01-20 01:58:00,
2013-01-19 18:03:00,69.3,25.2,30.14,NNE,15,1.0,3.0,19,0.00,,,0.00,meteohub,2013-01-20 02:03:00,
2013-01-19 18:09:00,69.3,25.2,30.14,NNE,17,1.0,3.0,19,0.00,,,0.00,meteohub,2013-01-20 02:09:00,
2013-01-19 18:14:00,69.1,26.2,30.15,NNE,17,1.0,3.0,20,0.00,,,0.00,meteohub,2013-01-20 02:14:00,
2013-01-19 18:20:00,68.9,27.3,30.15,NNE,17,0.0,4.0,21,0.00,,,0.00,meteohub,2013-01-20 02:20:00,
2013-01-19 18:27:00,68.4,28.0,30.15,NNE,17,2.0,4.0,22,0.00,,,0.00,meteohub,2013-01-20 02:27:00,
2013-01-19 18:32:00,68.2,28.9,30.15,NNE,17,0.0,3.0,23,0.00,,,0.00,meteohub,2013-01-20 02:32:00,
2013-01-19 18:37:00,67.6,29.5,30.15,NNE,17,0.0,3.0,24,0.00,,,0.00,meteohub,2013-01-20 02:37:00,
2013-01-19 18:42:00,67.1,30.0,30.15,NNE,17,0.0,2.0,25,0.00,,,0.00,meteohub,2013-01-20 02:42:00,
2013-01-19 18:47:00,66.0,30.2,30.15,NNE,17,0.0,0.0,26,0.00,,,0.00,meteohub,2013-01-20 02:47:00,
2013-01-19 18:53:00,65.1,30.4,30.15,NNE,17,0.0,0.0,27,0.00,,,0.00,meteohub,2013-01-20 02:53:00,
2013-01-19 18:58:00,64.2,30.4,30.15,NNE,17,0.0,0.0,28,0.00,,,0.00,meteohub,2013-01-20 02:58:00,
2013-01-19 19:04:00,63.5,29.8,30.16,NNE,17,0.0,0.0,28,0.00,,,0.00,meteohub,2013-01-20 03:04:00,
2013-01-19 19:09:00,63.3,29.7,30.15,NNE,17,0.0,0.0,28,0.00,,,0.00,meteohub,2013-01-20 03:09:00,
2013-01-19 19:14:00,62.6,29.8,30.16,NNE,17,0.0,0.0,29,0.00,,,0.00,meteohub,2013-01-20 03:14:00,
2013-01-19 19:19:00,62.1,29.5,30.16,NNE,17,0.0,0.0,29,0.00,,,0.00,meteohub,2013-01-20 03:19:00,
2013-01-19 19:24:00,61.5,30.6,30.16,NNE,17,0.0,0.0,31,0.00,,,0.00,meteohub,2013-01-20 03:24:00,
2013-01-19 19:29:00,61.2,30.2,30.16,NNE,17,0.0,0.0,31,0.00,,,0.00,meteohub,2013-01-20 03:29:00,
2013-01-19 19:36:00,60.8,30.7,30.16,NNE,17,0.0,0.0,32,0.00,,,0.00,meteohub,2013-01-20 03:36:00,
2013-01-19 19:42:00,60.1,30.2,30.16,NNE,17,0.0,0.0,32,0.00,,,0.00,meteohub,2013-01-20 03:42:00,
2013-01-19 19:47:00,59.5,31.1,30.17,NNE,17,0.0,0.0,34,0.00,,,0.00,meteohub,2013-01-20 03:47:00,
2013-01-19 19:52:00,59.2,31.5,30.17,NNE,17,0.0,0.0,35,0.00,,,0.00,meteohub,2013-01-20 03:52:00,
2013-01-19 19:57:00,58.6,32.4,30.17,NNE,17,0.0,0.0,37,0.00,,,0.00,meteohub,2013-01-20 03:57:00,
2013-01-19 20:02:00,58.3,32.7,30.17,NNE,17,0.0,0.0,38,0.00,,,0.00,meteohub,2013-01-20 04:02:00,
2013-01-19 20:07:00,57.7,32.9,30.17,NNE,17,0.0,0.0,39,0.00,,,0.00,meteohub,2013-01-20 04:07:00,
2013-01-19 20:12:00,57.4,32.5,30.17,NNE,17,0.0,0.0,39,0.00,,,0.00,meteohub,2013-01-20 04:12:00,
2013-01-19 20:17:00,56.8,32.2,30.17,NNE,17,0.0,0.0,39,0.00,,,0.00,meteohub,2013-01-20 04:17:00,
2013-01-19 20:24:00,56.7,31.3,30.17,NNE,17,0.0,0.0,38,0.00,,,0.00,meteohub,2013-01-20 04:24:00,
2013-01-19 20:29:00,56.5,31.8,30.17,NNE,17,0.0,0.0,39,0.00,,,0.00,meteohub,2013-01-20 04:29:00,
2013-01-19 20:34:00,56.3,31.1,30.17,NNE,17,0.0,0.0,38,0.00,,,0.00,meteohub,2013-01-20 04:34:00,
2013-01-19 20:39:00,56.1,30.9,30.17,NNE,17,0.0,0.0,38,0.00,,,0.00,meteohub,2013-01-20 04:39:00,
2013-01-19 20:45:00,56.1,30.9,30.17,NNE,17,0.0,0.0,38,0.00,,,0.00,meteohub,2013-01-20 04:45:00,
2013-01-19 20:50:00,56.1,30.9,30.17,NNE,17,0.0,1.0,38,0.00,,,0.00,meteohub,2013-01-20 04:50:00,
2013-01-19 20:56:00,56.1,30.9,30.17,NNE,17,0.0,1.0,38,0.00,,,0.00,meteohub,2013-01-20 04:56:00,
2013-01-19 21:00:00,56.1,30.9,30.17,NNE,17,0.0,1.0,38,0.00,,,0.00,meteohub,2013-01-20 05:00:00,
2013-01-19 21:03:00,56.1,30.2,30.17,NNE,17,0.0,1.0,37,0.00,,,0.00,meteohub,2013-01-20 05:03:00,
2013-01-19 21:08:00,55.9,32.5,30.18,NNE,17,0.0,0.0,41,0.00,,,0.00,meteohub,2013-01-20 05:08:00,
2013-01-19 21:13:00,55.6,31.6,30.17,NNE,17,0.0,2.0,40,0.00,,,0.00,meteohub,2013-01-20 05:13:00,
2013-01-19 21:18:00,55.0,31.1,30.18,NNE,17,0.0,2.0,40,0.00,,,0.00,meteohub,2013-01-20 05:18:00,
2013-01-19 21:23:00,54.9,30.4,30.17,NNE,17,0.0,0.0,39,0.00,,,0.00,meteohub,2013-01-20 05:23:00,
2013-01-19 21:28:00,54.9,29.7,30.18,NNE,17,0.0,0.0,38,0.00,,,0.00,meteohub,2013-01-20 05:28:00,
2013-01-19 21:34:00,54.9,30.4,30.18,NNE,17,0.0,0.0,39,0.00,,,0.00,meteohub,2013-01-20 05:34:00,
2013-01-19 21:39:00,54.7,28.2,30.17,NNE,17,0.0,0.0,36,0.00,,,0.00,meteohub,2013-01-20 05:39:00,
2013-01-19 21:44:00,54.7,29.5,30.18,NNE,17,0.0,0.0,38,0.00,,,0.00,meteohub,2013-01-20 05:44:00,
2013-01-19 21:49:00,54.3,29.3,30.18,NNE,17,0.0,1.0,38,0.00,,,0.00,meteohub,2013-01-20 05:49:00,
2013-01-19 21:54:00,54.0,29.5,30.18,NNE,17,0.0,1.0,39,0.00,,,0.00,meteohub,2013-01-20 05:54:00,
2013-01-19 21:59:00,53.8,29.5,30.18,NNE,17,0.0,1.0,39,0.00,,,0.00,meteohub,2013-01-20 05:59:00,
2013-01-19 22:04:00,53.4,27.1,30.18,NNE,17,0.0,0.0,36,0.00,,,0.00,meteohub,2013-01-20 06:04:00,
2013-01-19 22:09:00,53.4,27.9,30.18,NNE,17,0.0,0.0,37,0.00,,,0.00,meteohub,2013-01-20 06:09:00,
2013-01-19 22:14:00,53.4,27.1,30.18,NNE,17,0.0,1.0,36,0.00,,,0.00,meteohub,2013-01-20 06:14:00,
2013-01-19 22:19:00,53.4,32.0,30.18,NNE,17,0.0,1.0,44,0.00,,,0.00,meteohub,2013-01-20 06:19:00,
2013-01-19 22:25:00,53.2,28.2,30.18,NNE,17,0.0,1.0,38,0.00,,,0.00,meteohub,2013-01-20 06:25:00,
2013-01-19 22:30:00,53.1,28.0,30.18,NNE,17,0.0,1.0,38,0.00,,,0.00,meteohub,2013-01-20 06:30:00,
2013-01-19 22:35:00,52.9,28.0,30.19,NNE,17,0.0,1.0,38,0.00,,,0.00,meteohub,2013-01-20 06:35:00,
2013-01-19 22:40:00,52.9,28.6,30.19,NNE,17,0.0,0.0,39,0.00,,,0.00,meteohub,2013-01-20 06:40:00,
2013-01-19 22:45:00,52.7,29.1,30.19,NNE,17,0.0,1.0,40,0.00,,,0.00,meteohub,2013-01-20 06:45:00,
2013-01-19 22:50:00,52.3,29.8,30.19,NNE,17,0.0,0.0,42,0.00,,,0.00,meteohub,2013-01-20 06:50:00,
2013-01-19 22:55:00,52.0,28.9,30.19,NNE,17,0.0,0.0,41,0.00,,,0.00,meteohub,2013-01-20 06:55:00,
2013-01-19 23:00:00,52.0,26.6,30.19,NNE,17,0.0,0.0,37,0.00,,,0.00,meteohub,2013-01-20 07:00:00,
2013-01-19 23:05:00,52.3,29.3,30.19,NNE,17,0.0,1.0,41,0.00,,,0.00,meteohub,2013-01-20 07:05:00,
2013-01-19 23:10:00,51.8,30.0,30.19,NNE,17,0.0,1.0,43,0.00,,,0.00,meteohub,2013-01-20 07:10:00,
2013-01-19 23:15:00,51.4,28.6,30.19,NNE,17,0.0,1.0,41,0.00,,,0.00,meteohub,2013-01-20 07:15:00,
2013-01-19 23:20:00,51.3,28.9,30.19,NNE,17,0.0,1.0,42,0.00,,,0.00,meteohub,2013-01-20 07:20:00,
2013-01-19 23:25:00,51.1,29.3,30.19,NNE,17,0.0,1.0,43,0.00,,,0.00,meteohub,2013-01-20 07:25:00,
2013-01-19 23:30:00,50.7,28.4,30.19,NNE,17,0.0,0.0,42,0.00,,,0.00,meteohub,2013-01-20 07:30:00,
2013-01-19 23:36:00,50.5,27.1,30.19,NNE,17,0.0,0.0,40,0.00,,,0.00,meteohub,2013-01-20 07:36:00,
2013-01-19 23:41:00,50.5,27.1,30.19,NNE,17,0.0,0.0,40,0.00,,,0.00,meteohub,2013-01-20 07:41:00,
2013-01-19 23:46:00,50.4,27.5,30.19,NNE,17,0.0,0.0,41,0.00,,,0.00,meteohub,2013-01-20 07:46:00,
2013-01-19 23:51:00,50.2,26.8,30.19,NNE,17,0.0,0.0,40,0.00,,,0.00,meteohub,2013-01-20 07:51:00,
2013-01-19 23:56:00,50.4,26.4,30.19,NNE,17,0.0,0.0,39,0.00,,,0.00,meteohub,2013-01-20 07:56:00,